K5DLF-13 League City TX US current weather conditions

sailwx.info

Wind from 181 at 1 knots

Air temperature 31.1° C
Dewpoint 26.8° C

Last reported at 2020-Aug-10 16:02 UTC.
Time now 2020-Aug-10 16:52 UTC

Location: N 29°29' W 095°09'.
View on Google Maps.

See reports from other nearby stations

  
Tides and Currents Weather Stations Pressure Air Temp Water Temp Dewpoint Dewpoint Depression Visibility Wind Speed Wind Dir Waves Ship Positions
date/time (UTC)wind fromknots sea level pressurealtimeterstation pressurevisibilityair tempwater tempwave heightnotes
2020-Aug-10 16:02 181 1 31.1
2020-Aug-10 15:52 184 3 31.7
2020-Aug-10 15:42 158 0 30.0
2020-Aug-10 15:32 199 2 30.6
2020-Aug-10 15:22 194 2 31.1
2020-Aug-10 15:12 143 31.7
2020-Aug-10 15:02 141 1 31.1
2020-Aug-10 14:52 109 3 30.6
2020-Aug-10 14:42 136 30.6
2020-Aug-10 14:32 152 30.0
2020-Aug-10 14:22 161 30.0
2020-Aug-10 14:12 142 29.4
2020-Aug-10 14:02 163 0 29.4
2020-Aug-10 13:52 182 28.3
2020-Aug-10 13:42 163 27.8
2020-Aug-10 13:32 167 27.8
2020-Aug-10 13:22 144 26.7
2020-Aug-10 13:12 109 26.1
2020-Aug-10 13:02 165 26.1
2020-Aug-10 12:52 165 25.6
2020-Aug-10 12:42 165 25.0
2020-Aug-10 12:32 169 25.0
2020-Aug-10 12:22 169 24.4
2020-Aug-10 12:12 169 24.4
2020-Aug-10 12:02 169 23.9
2020-Aug-10 11:52 169 24.4
2020-Aug-10 11:42 169 24.4
2020-Aug-10 11:32 169 24.4
2020-Aug-10 11:22 169 24.4
2020-Aug-10 11:12 169 24.4
2020-Aug-10 11:02 169 24.4
2020-Aug-10 10:52 169 24.4
2020-Aug-10 10:42 169 24.4
2020-Aug-10 10:32 169 24.4
2020-Aug-10 10:22 169 24.4
2020-Aug-10 10:12 169 24.4
2020-Aug-10 10:02 169 24.4
2020-Aug-10 09:52 169 24.4
2020-Aug-10 09:42 169 24.4
2020-Aug-10 09:32 169 24.4
2020-Aug-10 09:22 169 24.4
2020-Aug-10 09:12 169 24.4
2020-Aug-10 09:02 169 24.4
2020-Aug-10 08:52 169 24.4
2020-Aug-10 08:42 169 25.0
2020-Aug-10 08:32 169 25.0
2020-Aug-10 08:22 169 25.0
2020-Aug-10 08:12 169 25.0
2020-Aug-10 08:02 169 25.0
2020-Aug-10 07:52 169 25.0
2020-Aug-10 07:42 169 25.0
2020-Aug-10 07:32 169 25.0
2020-Aug-10 07:22 169 25.0
2020-Aug-10 07:12 169 25.0
2020-Aug-10 07:02 169 25.0
2020-Aug-10 06:52 169 25.0
2020-Aug-10 06:42 169 25.0
2020-Aug-10 06:32 169 25.0
2020-Aug-10 06:22 169 25.0
2020-Aug-10 06:12 169 25.0
2020-Aug-10 06:02 169 25.0
2020-Aug-10 05:52 169 25.6
2020-Aug-10 05:42 167 0 25.6
2020-Aug-10 05:32 167 0 25.6
2020-Aug-10 05:22 165 25.6
2020-Aug-10 05:12 165 25.0
2020-Aug-10 05:02 165 25.0
2020-Aug-10 04:52 165 25.0
2020-Aug-10 04:42 165 25.0
2020-Aug-10 04:32 165 25.0
2020-Aug-10 04:22 165 25.0
2020-Aug-10 04:12 165 25.0
2020-Aug-10 04:02 165 25.6
2020-Aug-10 03:52 165 25.6
2020-Aug-10 03:42 165 25.6
2020-Aug-10 03:32 165 25.6
2020-Aug-10 03:22 165 26.1
2020-Aug-10 03:12 165 26.1
2020-Aug-10 03:02 165 26.1
2020-Aug-10 02:52 165 26.1
2020-Aug-10 02:42 165 26.1
2020-Aug-10 02:32 165 26.1
2020-Aug-10 02:22 165 26.1
2020-Aug-10 02:12 165 26.7
2020-Aug-10 02:02 165 26.7
2020-Aug-10 01:52 165 27.2
2020-Aug-10 01:42 168 1 27.2
2020-Aug-10 01:32 169 0 27.8
2020-Aug-10 01:22 175 28.3
2020-Aug-10 01:12 159 28.3
2020-Aug-10 01:02 164 28.9
2020-Aug-10 00:52 167 0 28.9
2020-Aug-10 00:42 173 3 29.4
2020-Aug-10 00:32 143 1 29.4
2020-Aug-10 00:22 181 4 30.0
2020-Aug-10 00:12 166 3 30.0
2020-Aug-10 00:02 158 1 30.0
2020-Aug-09 23:52 142 1 30.0
2020-Aug-09 23:42 152 0 30.0
2020-Aug-09 23:32 148 30.0
2020-Aug-09 23:21 179 1 30.0
2020-Aug-09 23:11 166 4 29.4
2020-Aug-09 23:02 153 4 29.4
2020-Aug-09 22:51 161 3 30.0
2020-Aug-09 22:42 157 3 30.0
2020-Aug-09 22:31 176 3 30.0
2020-Aug-09 22:21 136 3 30.0
2020-Aug-09 22:11 151 0 30.0
2020-Aug-09 22:01 152 1 30.6
2020-Aug-09 21:51 168 1 31.1
2020-Aug-09 21:42 178 1 31.1
2020-Aug-09 21:31 167 1 31.1
2020-Aug-09 21:21 258 5 31.1
2020-Aug-09 21:11 284 3 30.6
2020-Aug-09 21:01 175 1 31.7
2020-Aug-09 20:51 175 1 31.7
2020-Aug-09 20:41 188 2 32.2
2020-Aug-09 20:32 159 4 32.2
2020-Aug-09 20:21 159 4 32.2
2020-Aug-09 20:11 142 6 32.2
2020-Aug-09 20:01 206 2 32.8
2020-Aug-09 19:51 173 0 32.8
2020-Aug-09 19:41 160 0 31.7
2020-Aug-09 19:31 186 2 31.1
2020-Aug-09 19:21 186 4 28.9
2020-Aug-09 19:11 186 4 28.9
2020-Aug-09 19:01 186 2 26.7
2020-Aug-09 18:51 190 1 27.2
2020-Aug-09 18:41 211 4 30.6
2020-Aug-09 18:31 211 4 30.6
2020-Aug-09 18:21 192 1 31.1
2020-Aug-09 18:11 167 5 30.0
2020-Aug-09 18:01 167 5 30.0
2020-Aug-09 17:51 198 3 28.9
2020-Aug-09 17:41 213 1 29.4
2020-Aug-09 17:31 255 1 28.3
2020-Aug-09 17:21 181 28.3
2020-Aug-09 17:11 170 28.9
2020-Aug-09 17:01 133 1 28.9
2020-Aug-09 16:51 117 4 28.9
2020-Aug-09 16:41 161 1 29.4
2020-Aug-09 16:31 145 0 31.1
2020-Aug-09 16:21 151 3 32.2
2020-Aug-09 16:11 163 4 31.7
2020-Aug-09 16:01 134 0 31.7
2020-Aug-09 15:51 113 31.1
2020-Aug-09 15:41 162 0 30.6
2020-Aug-09 15:31 148 31.1
2020-Aug-09 15:22 170 3 31.1
2020-Aug-09 15:11 161 30.6
2020-Aug-09 15:01 171 30.0
2020-Aug-09 14:51 158 29.4
2020-Aug-09 14:41 170 0 28.9
2020-Aug-09 14:31 150 28.9
2020-Aug-09 14:11 158 1 28.9
2020-Aug-09 14:01 155 27.8
2020-Aug-09 13:51 155 27.8
2020-Aug-09 13:41 155 27.2
2020-Aug-09 13:31 155 26.7
2020-Aug-09 13:11 115 26.1
2020-Aug-09 13:01 169 26.1
2020-Aug-09 12:51 169 25.6
2020-Aug-09 12:41 169 25.6
2020-Aug-09 12:31 169 25.0
2020-Aug-09 12:11 169 25.0
2020-Aug-09 12:01 169 25.0
2020-Aug-09 11:51 169 24.4
2020-Aug-09 11:41 169 24.4
2020-Aug-09 11:31 169 24.4
2020-Aug-09 11:11 169 24.4
2020-Aug-09 11:01 169 25.0
2020-Aug-09 10:51 169 24.4
2020-Aug-09 10:41 169 25.0
2020-Aug-09 10:31 169 25.0
2020-Aug-09 10:11 169 25.0
2020-Aug-09 10:01 169 25.0
2020-Aug-09 09:51 169 25.0
2020-Aug-09 09:41 169 25.0
2020-Aug-09 09:31 169 25.0
2020-Aug-09 09:11 169 25.0
2020-Aug-09 09:01 169 25.0
2020-Aug-09 08:51 169 25.0
2020-Aug-09 08:41 169 25.0
2020-Aug-09 08:31 169 25.0
2020-Aug-09 08:11 169 25.0
2020-Aug-09 08:01 169 25.0
2020-Aug-09 07:51 169 25.6
2020-Aug-09 07:41 169 25.6
2020-Aug-09 07:31 169 25.0
2020-Aug-09 07:11 169 25.6
2020-Aug-09 07:01 169 25.6
2020-Aug-09 06:51 169 25.6
2020-Aug-09 06:41 169 25.6
2020-Aug-09 06:31 169 25.6
2020-Aug-09 06:11 169 25.6
2020-Aug-09 06:01 169 25.6
2020-Aug-09 05:51 169 25.6
2020-Aug-09 05:41 169 25.6
2020-Aug-09 05:31 169 26.1
2020-Aug-09 05:11 169 26.1
2020-Aug-09 05:01 169 26.1
2020-Aug-09 04:51 169 26.1
2020-Aug-09 04:41 169 26.1
2020-Aug-09 04:31 169 26.1
2020-Aug-09 04:11 169 26.7
2020-Aug-09 04:01 169 26.7
2020-Aug-09 03:51 169 26.7
2020-Aug-09 03:41 169 26.7
2020-Aug-09 03:31 169 26.7
2020-Aug-09 03:11 169 27.2
2020-Aug-09 03:01 169 27.2
2020-Aug-09 02:51 169 27.8
2020-Aug-09 02:41 180 27.8
2020-Aug-09 02:31 180 27.8
2020-Aug-09 02:11 148 28.3
2020-Aug-09 02:01 156 28.3
2020-Aug-09 01:51 153 28.3
2020-Aug-09 01:41 151 28.3
2020-Aug-09 01:31 165 1 28.3
2020-Aug-09 01:10 173 1 28.9
2020-Aug-09 01:00 157 1 29.4
2020-Aug-09 00:50 161 3 30.0
2020-Aug-09 00:40 161 3 30.0
2020-Aug-09 00:30 154 3 30.6
2020-Aug-09 00:10 173 4 31.1
2020-Aug-09 00:00 169 3 31.1
2020-Aug-08 23:50 140 1 31.1
2020-Aug-08 23:40 157 5 31.7
2020-Aug-08 23:30 157 5 31.7
2020-Aug-08 23:10 153 0 31.7
2020-Aug-08 23:00 101 0 31.7
2020-Aug-08 22:50 148 5 31.7
2020-Aug-08 22:40 139 6 32.2
2020-Aug-08 22:30 152 32.8
2020-Aug-08 22:10 153 0 32.8
2020-Aug-08 22:00 152 0 32.8
2020-Aug-08 21:50 097 1 32.8
2020-Aug-08 21:40 113 0 33.3
2020-Aug-08 21:30 164 0 32.8
2020-Aug-08 21:10 158 1 33.3
2020-Aug-08 21:00 134 0 33.3
2020-Aug-08 20:50 165 0 33.3
2020-Aug-08 20:40 122 1 33.3
2020-Aug-08 20:30 160 1 32.2
2020-Aug-08 20:10 173 1 33.3
2020-Aug-08 20:00 188 1 32.8
2020-Aug-08 19:50 178 3 30.6
2020-Aug-08 19:40 188 5 30.6
2020-Aug-08 19:30 178 1 30.6
2020-Aug-08 19:10 264 2 32.2
2020-Aug-08 19:00 153 4 32.8
2020-Aug-08 18:50 207 3 32.2
2020-Aug-08 18:40 168 6 32.8
2020-Aug-08 18:30 161 5 31.7
2020-Aug-08 18:20 146 3 30.6
2020-Aug-08 18:10 166 4 28.9
2020-Aug-08 18:00 267 1 32.2
2020-Aug-08 17:50 298 3 33.3
2020-Aug-08 17:40 277 0 33.9
2020-Aug-08 17:30 025 0 33.3
2020-Aug-08 17:20 025 0 33.3
2020-Aug-08 17:10 333 33.3
2020-Aug-08 17:00 276 33.9
2020-Aug-08 16:50 336 33.9
2020-Aug-08 16:40 298 33.9
2020-Aug-08 16:30 270 1 33.3
2020-Aug-08 16:20 289 0 33.3
2020-Aug-08 16:10 267 33.3
2020-Aug-08 16:00 122 32.8